KLM767 TNCB-EHAM

Flight info

Callsign KLM767
Flight time N/A
Altitude 37000
Route SCAPA L327 OPAUL/M082F390 DCT SIFEN DCT 37N050W 45N040W 49N030W 52N020W DCT MALOT/N0463F390 DCT GISTI DCT MOMIN DCT DAP DCT LIFFY DCT DOLAS L603 LAMSO
Aircraft A332/H-SDE3GHIJ2J3J5M1RVWXY/LB2D1

Departure

Time 2026-05-04 02:19
Airport Flamingo International Airport (TNCB)

Arrival

Time N/A
Airport Amsterdam Airport Schiphol (EHAM)
Time Latitude Longitude Altitude Speed Heading
2026-05-04 01:54 12.13340 -68.27496 4 ft 0 kts
2026-05-04 02:12 12.13339 -68.27496 31 ft 2 kts
2026-05-04 02:12 12.13314 -68.27495 29 ft 4 kts 350°
2026-05-04 02:12 12.13288 -68.27488 30 ft 4 kts 333°
2026-05-04 02:13 12.13266 -68.27472 30 ft 4 kts 312°
2026-05-04 02:13 12.13252 -68.27450 30 ft 4 kts 285°
2026-05-04 02:13 12.13249 -68.27436 30 ft 0 kts 272°
2026-05-04 02:16 12.13249 -68.27437 30 ft 1 kts 272°
2026-05-04 02:16 12.13239 -68.27479 29 ft 8 kts 235°
2026-05-04 02:16 12.13193 -68.27497 31 ft 7 kts 190°
2026-05-04 02:16 12.13143 -68.27506 31 ft 8 kts 189°
2026-05-04 02:17 12.13106 -68.27541 32 ft 11 kts 251°
2026-05-04 02:17 12.13108 -68.27673 32 ft 22 kts 271°
2026-05-04 02:17 12.13113 -68.27828 31 ft 22 kts 271°
2026-05-04 02:17 12.13111 -68.27983 31 ft 20 kts 256°
2026-05-04 02:18 12.13062 -68.28103 31 ft 13 kts 277°
2026-05-04 02:18 12.13114 -68.28103 31 ft 7 kts 60°
2026-05-04 02:18 12.13118 -68.28067 31 ft 0 kts 88°
2026-05-04 02:18 12.13119 -68.28017 30 ft 27 kts 89°
2026-05-04 02:19 12.13107 -68.27620 32 ft 83 kts 92°
2026-05-04 02:19 12.13084 -68.26852 32 ft 132 kts 91°
2026-05-04 02:19 12.13058 -68.25863 438 ft 141 kts 89°
2026-05-04 02:19 12.13042 -68.24867 974 ft 140 kts 94°
2026-05-04 02:20 12.12992 -68.23849 1461 ft 144 kts 94°
2026-05-04 02:20 12.12949 -68.22819 1932 ft 149 kts 94°
2026-05-04 02:20 12.12922 -68.21723 2180 ft 161 kts 92°
2026-05-04 02:20 12.12935 -68.20534 2460 ft 173 kts 88°
2026-05-04 02:21 12.12965 -68.19267 2762 ft 186 kts 91°
2026-05-04 02:21 12.12924 -68.17881 3000 ft 205 kts 92°
2026-05-04 02:21 12.13265 -68.16392 3184 ft 229 kts 67°
2026-05-04 02:21 12.14328 -68.15123 3472 ft 251 kts 41°
2026-05-04 02:22 12.15977 -68.14398 3935 ft 267 kts 22°
2026-05-04 02:22 12.17809 -68.14021 4569 ft 270 kts 12°
2026-05-04 02:22 12.19671 -68.13727 5235 ft 272 kts 12°
2026-05-04 02:22 12.21565 -68.13435 5815 ft 278 kts 11°
2026-05-04 02:23 12.23491 -68.13127 6514 ft 280 kts 12°
2026-05-04 02:23 12.25413 -68.12811 7185 ft 281 kts 13°
2026-05-04 02:23 12.27348 -68.12486 7856 ft 283 kts 13°
2026-05-04 02:23 12.29297 -68.12155 8519 ft 285 kts 14°
2026-05-04 02:24 12.31258 -68.11820 9205 ft 287 kts 15°
2026-05-04 02:24 12.33240 -68.11480 9857 ft 291 kts 14°
2026-05-04 02:24 12.35256 -68.11132 10309 ft 300 kts 14°
2026-05-04 02:24 12.37371 -68.10763 10552 ft 317 kts 13°
2026-05-04 02:25 12.39601 -68.10375 10787 ft 333 kts 13°
2026-05-04 02:25 12.41938 -68.09972 11025 ft 348 kts 12°
2026-05-04 02:25 12.44370 -68.09552 11219 ft 361 kts 13°
2026-05-04 02:25 12.46895 -68.09116 11440 ft 373 kts 13°
2026-05-04 02:26 12.49483 -68.08671 11766 ft 381 kts 12°
2026-05-04 02:26 12.52113 -68.08223 12183 ft 384 kts 13°
2026-05-04 02:26 12.54759 -68.07771 12644 ft 387 kts 12°
2026-05-04 02:26 12.57427 -68.07313 13068 ft 390 kts 13°
2026-05-04 02:27 12.60113 -68.06851 13527 ft 392 kts 11°
2026-05-04 02:27 12.62817 -68.06383 13957 ft 395 kts 13°
2026-05-04 02:27 12.65537 -68.05912 14343 ft 398 kts 12°
2026-05-04 02:27 12.68242 -68.05442 14698 ft 401 kts 12°
2026-05-04 02:28 12.71040 -68.04955 15081 ft 404 kts 13°
2026-05-04 02:28 12.73819 -68.04472 15445 ft 407 kts 12°
2026-05-04 02:28 12.76616 -68.03987 15817 ft 409 kts 12°
2026-05-04 02:28 12.79438 -68.03498 16168 ft 413 kts 12°
2026-05-04 02:29 12.82240 -68.03013 16523 ft 415 kts 13°
2026-05-04 02:29 12.85094 -68.02516 16880 ft 418 kts 12°
2026-05-04 02:29 12.87973 -68.02016 17231 ft 421 kts 12°
2026-05-04 02:29 12.90869 -68.01514 17587 ft 423 kts 11°
2026-05-04 02:30 12.93783 -68.01008 17930 ft 426 kts 12°
2026-05-04 02:30 12.96714 -68.00498 18288 ft 428 kts 11°
2026-05-04 02:30 12.99661 -67.99983 18584 ft 431 kts 12°
2026-05-04 02:30 13.02617 -67.99470 18921 ft 431 kts 11°
2026-05-04 02:31 13.05580 -67.98955 19273 ft 432 kts 11°
2026-05-04 02:31 13.08544 -67.98441 19611 ft 433 kts 11°
2026-05-04 02:31 13.11515 -67.97923 19949 ft 434 kts 10°
2026-05-04 02:31 13.14495 -67.97404 20265 ft 435 kts 10°
2026-05-04 02:32 13.17482 -67.96883 20607 ft 436 kts 10°
2026-05-04 02:32 13.20473 -67.96362 20906 ft 437 kts 10°
2026-05-04 02:32 13.23473 -67.95839 21271 ft 437 kts
2026-05-04 02:32 13.26481 -67.95315 21600 ft 438 kts
2026-05-04 02:33 13.29486 -67.94791 21951 ft 439 kts
2026-05-04 02:33 13.32500 -67.94265 22242 ft 440 kts
2026-05-04 02:33 13.35519 -67.93739 22578 ft 441 kts
2026-05-04 02:33 13.38556 -67.93209 22894 ft 442 kts
2026-05-04 02:34 13.41592 -67.92679 23201 ft 444 kts
2026-05-04 02:34 13.44643 -67.92147 23556 ft 444 kts
2026-05-04 02:34 13.47692 -67.91614 23789 ft 446 kts
2026-05-04 02:34 13.50719 -67.91086 24031 ft 448 kts
2026-05-04 02:35 13.53802 -67.90546 24182 ft 452 kts
2026-05-04 02:35 13.56904 -67.90004 24460 ft 452 kts
2026-05-04 02:35 13.60014 -67.89460 24638 ft 455 kts
2026-05-04 02:35 13.63141 -67.88913 24919 ft 456 kts
2026-05-04 02:36 13.66277 -67.88365 25099 ft 458 kts
2026-05-04 02:36 13.69422 -67.87814 25374 ft 459 kts
2026-05-04 02:36 13.72589 -67.87259 25534 ft 462 kts
2026-05-04 02:36 13.75762 -67.86704 25786 ft 464 kts
2026-05-04 02:37 13.78952 -67.86147 25992 ft 465 kts
2026-05-04 02:37 13.82152 -67.85587 26170 ft 468 kts
2026-05-04 02:37 13.85371 -67.85023 26403 ft 469 kts
2026-05-04 02:37 13.88603 -67.84456 26551 ft 473 kts
2026-05-04 02:38 13.91856 -67.83887 26741 ft 476 kts
2026-05-04 02:38 13.95126 -67.83314 26930 ft 478 kts
2026-05-04 02:38 13.98404 -67.82738 27163 ft 479 kts
2026-05-04 02:38 14.01655 -67.82168 27346 ft 481 kts
2026-05-04 02:39 14.04957 -67.81589 27554 ft 483 kts
2026-05-04 02:39 14.08276 -67.81006 27757 ft 484 kts
2026-05-04 02:39 14.11602 -67.80421 27929 ft 487 kts
2026-05-04 02:39 14.14947 -67.79833 28145 ft 488 kts
2026-05-04 02:40 14.18298 -67.79244 28320 ft 490 kts
2026-05-04 02:40 14.21662 -67.78653 28482 ft 492 kts
2026-05-04 02:40 14.25050 -67.78058 28589 ft 495 kts
2026-05-04 02:40 14.28452 -67.77459 28775 ft 497 kts
2026-05-04 02:41 14.31865 -67.76858 28955 ft 498 kts
2026-05-04 02:41 14.35288 -67.76254 29132 ft 500 kts
2026-05-04 02:41 14.38716 -67.75651 29387 ft 499 kts
2026-05-04 02:41 14.42137 -67.75050 29645 ft 499 kts
2026-05-04 02:42 14.45560 -67.74448 29889 ft 499 kts
2026-05-04 02:42 14.48983 -67.73845 30110 ft 499 kts
2026-05-04 02:42 14.52406 -67.73241 30314 ft 499 kts
2026-05-04 02:42 14.55833 -67.72636 30453 ft 501 kts
2026-05-04 02:43 14.59266 -67.72031 30635 ft 501 kts
2026-05-04 02:43 14.62660 -67.71432 30863 ft 500 kts
2026-05-04 02:43 14.66088 -67.70827 31108 ft 499 kts
2026-05-04 02:43 14.69512 -67.70222 31311 ft 499 kts
2026-05-04 02:44 14.72933 -67.69618 31524 ft 499 kts
2026-05-04 02:44 14.76358 -67.69013 31760 ft 498 kts
2026-05-04 02:44 14.79775 -67.68410 31945 ft 498 kts
2026-05-04 02:44 14.82034 -67.68010 32120 ft 497 kts
2026-05-04 02:45 14.85446 -67.67407 32325 ft 497 kts
2026-05-04 02:45 14.88845 -67.66805 32621 ft 495 kts
2026-05-04 02:45 14.92232 -67.66205 32886 ft 493 kts
2026-05-04 02:45 14.95614 -67.65607 33095 ft 493 kts
2026-05-04 02:46 14.98997 -67.65009 33323 ft 492 kts
2026-05-04 02:46 15.02372 -67.64412 33528 ft 492 kts
2026-05-04 02:46 15.05746 -67.63815 33748 ft 491 kts
2026-05-04 02:46 15.09116 -67.63218 33964 ft 491 kts
2026-05-04 02:47 15.12475 -67.62622 34156 ft 490 kts
2026-05-04 02:47 15.15832 -67.62026 34384 ft 488 kts
2026-05-04 02:47 15.19172 -67.61433 34650 ft 485 kts
2026-05-04 02:47 15.22489 -67.60845 34960 ft 482 kts
2026-05-04 02:48 15.25781 -67.60260 35215 ft 479 kts
2026-05-04 02:48 15.29069 -67.59676 35425 ft 478 kts
2026-05-04 02:48 15.32344 -67.59095 35617 ft 477 kts
2026-05-04 02:48 15.35605 -67.58516 35840 ft 475 kts
2026-05-04 02:49 15.38862 -67.57937 36049 ft 474 kts
2026-05-04 02:49 15.42110 -67.57360 36256 ft 472 kts
2026-05-04 02:49 15.45342 -67.56785 36468 ft 471 kts
2026-05-04 02:49 15.48525 -67.56219 36670 ft 470 kts
2026-05-04 02:50 15.51781 -67.55639 36892 ft 468 kts
2026-05-04 02:50 15.54992 -67.55068 37022 ft 468 kts
2026-05-04 02:50 15.61355 -67.53935 37037 ft 467 kts
2026-05-04 02:51 15.67750 -67.52796 37039 ft 466 kts
2026-05-04 02:51 15.74143 -67.51657 37040 ft 466 kts
2026-05-04 02:52 15.80536 -67.50489 37037 ft 467 kts
2026-05-04 02:52 15.86662 -67.48138 37043 ft 474 kts 23°
2026-05-04 02:53 15.92467 -67.44862 37040 ft 476 kts 26°
2026-05-04 02:53 15.98214 -67.41435 37041 ft 476 kts 26°
2026-05-04 02:54 16.03969 -67.38019 37045 ft 476 kts 26°
2026-05-04 02:54 16.09736 -67.34632 37045 ft 476 kts 26°
2026-05-04 02:55 16.18361 -67.29588 37048 ft 477 kts 26°
2026-05-04 02:56 16.24146 -67.26202 37047 ft 477 kts 26°
2026-05-04 02:56 16.29936 -67.22809 37048 ft 477 kts 26°
2026-05-04 02:57 16.35723 -67.19415 37047 ft 477 kts 26°
2026-05-04 02:57 16.41505 -67.16022 37048 ft 477 kts 26°
2026-05-04 02:58 16.47291 -67.12624 37055 ft 478 kts 26°
2026-05-04 02:58 16.53089 -67.09218 37053 ft 478 kts 26°
2026-05-04 02:59 16.58884 -67.05810 37056 ft 478 kts 26°
2026-05-04 02:59 16.64678 -67.02400 37056 ft 478 kts 26°
2026-05-04 03:00 16.70473 -66.98987 37058 ft 478 kts 26°
2026-05-04 03:00 16.76233 -66.95593 37059 ft 478 kts 26°
2026-05-04 03:01 16.82026 -66.92177 37060 ft 478 kts 26°
2026-05-04 03:01 16.87817 -66.88760 37059 ft 478 kts 26°
2026-05-04 03:02 16.93606 -66.85341 37059 ft 478 kts 26°
2026-05-04 03:02 16.99396 -66.81919 37059 ft 478 kts 26°
2026-05-04 03:03 17.05182 -66.78498 37059 ft 478 kts 26°
2026-05-04 03:03 17.10976 -66.75069 37062 ft 479 kts 26°
2026-05-04 03:04 17.16740 -66.71655 37058 ft 479 kts 26°
2026-05-04 03:04 17.22536 -66.68220 37059 ft 479 kts 26°
2026-05-04 03:05 17.28332 -66.64782 37060 ft 479 kts 26°
2026-05-04 03:05 17.34130 -66.61341 37064 ft 479 kts 26°
2026-05-04 03:06 17.39929 -66.57897 37064 ft 479 kts 26°
2026-05-04 03:06 17.45728 -66.54450 37064 ft 479 kts 27°
2026-05-04 03:07 17.51530 -66.50999 37065 ft 479 kts 26°
2026-05-04 03:07 17.57330 -66.47547 37064 ft 479 kts 26°
2026-05-04 03:08 17.63089 -66.44116 37067 ft 479 kts 27°
2026-05-04 03:08 17.68886 -66.40661 37064 ft 479 kts 27°
2026-05-04 03:09 17.74680 -66.37203 37071 ft 479 kts 27°
2026-05-04 03:09 17.80470 -66.33746 37072 ft 479 kts 27°
2026-05-04 03:10 17.86266 -66.30283 37069 ft 479 kts 27°
2026-05-04 03:10 17.92059 -66.26819 37083 ft 479 kts 27°
2026-05-04 03:11 17.97851 -66.23353 37081 ft 478 kts 27°
2026-05-04 03:11 18.03624 -66.19896 37088 ft 477 kts 27°
2026-05-04 03:12 18.09391 -66.16438 37087 ft 478 kts 27°
2026-05-04 03:12 18.15167 -66.12974 37091 ft 478 kts 27°
2026-05-04 03:13 18.20939 -66.09510 37085 ft 478 kts 27°
2026-05-04 03:13 18.26704 -66.06047 37082 ft 477 kts 27°
2026-05-04 03:14 18.32461 -66.02586 37108 ft 477 kts 27°
2026-05-04 03:14 18.38186 -65.99141 37110 ft 477 kts 27°
2026-05-04 03:15 18.43945 -65.95674 37110 ft 477 kts 27°
2026-05-04 03:15 18.49701 -65.92205 37110 ft 477 kts 27°
2026-05-04 03:16 18.55460 -65.88733 37106 ft 477 kts 27°
2026-05-04 03:16 18.61221 -65.85256 37100 ft 477 kts 27°
2026-05-04 03:17 18.66973 -65.81781 37091 ft 477 kts 27°
2026-05-04 03:17 18.72730 -65.78301 37080 ft 477 kts 27°
2026-05-04 03:18 18.78483 -65.74821 37079 ft 477 kts 27°
2026-05-04 03:18 18.84236 -65.71338 37076 ft 476 kts 27°
2026-05-04 03:19 18.89944 -65.67879 37083 ft 476 kts 27°
2026-05-04 03:19 18.95689 -65.64396 37085 ft 476 kts 27°
2026-05-04 03:20 19.01437 -65.60908 37089 ft 476 kts 27°
2026-05-04 03:20 19.07178 -65.57420 37086 ft 476 kts 27°
2026-05-04 03:21 19.12918 -65.53931 37083 ft 476 kts 28°
2026-05-04 03:21 19.18658 -65.50439 37088 ft 476 kts 28°
2026-05-04 03:22 19.24400 -65.46943 37089 ft 476 kts 28°
2026-05-04 03:22 19.30098 -65.43471 37089 ft 476 kts 28°
2026-05-04 03:23 19.35835 -65.39972 37090 ft 476 kts 28°
2026-05-04 03:23 19.41568 -65.36473 37091 ft 475 kts 28°
2026-05-04 03:24 19.47299 -65.32973 37094 ft 475 kts 28°
2026-05-04 03:24 19.53033 -65.29467 37097 ft 475 kts 28°
2026-05-04 03:25 19.58756 -65.25966 37092 ft 475 kts 28°
2026-05-04 03:25 19.64485 -65.22458 37096 ft 475 kts 28°
2026-05-04 03:26 19.70210 -65.18949 37098 ft 475 kts 28°
2026-05-04 03:26 19.75932 -65.15439 37097 ft 475 kts 28°
2026-05-04 03:27 19.81653 -65.11927 37099 ft 475 kts 28°
2026-05-04 03:27 19.87336 -65.08435 37097 ft 475 kts 28°
2026-05-04 03:28 19.93060 -65.04916 37103 ft 475 kts 28°
2026-05-04 03:28 19.98777 -65.01397 37106 ft 475 kts 28°
2026-05-04 03:29 20.04495 -64.97875 37110 ft 475 kts 28°
2026-05-04 03:29 20.10214 -64.94350 37105 ft 475 kts 28°
2026-05-04 03:30 20.15936 -64.90819 37106 ft 475 kts 28°
2026-05-04 03:30 20.21653 -64.87288 37109 ft 475 kts 28°
2026-05-04 03:31 20.27367 -64.83757 37111 ft 475 kts 28°
2026-05-04 03:31 20.33082 -64.80221 37108 ft 475 kts 28°
2026-05-04 03:32 20.38798 -64.76682 37107 ft 475 kts 28°
2026-05-04 03:32 20.44512 -64.73141 37107 ft 475 kts 28°
2026-05-04 03:33 20.50228 -64.69596 37121 ft 475 kts 28°
2026-05-04 03:33 20.55943 -64.66048 37113 ft 476 kts 28°
2026-05-04 03:34 20.61666 -64.62493 37109 ft 476 kts 28°
2026-05-04 03:34 20.67387 -64.58935 37116 ft 476 kts 28°
2026-05-04 03:35 20.73103 -64.55377 37116 ft 476 kts 28°
2026-05-04 03:35 20.78823 -64.51814 37114 ft 476 kts 28°
2026-05-04 03:36 20.84508 -64.48270 37119 ft 476 kts 28°
2026-05-04 03:36 20.90233 -64.44697 37118 ft 476 kts 28°
2026-05-04 03:37 20.95957 -64.41121 37117 ft 476 kts 28°
2026-05-04 03:37 21.01679 -64.37544 37120 ft 476 kts 28°
2026-05-04 03:38 21.07402 -64.33963 37125 ft 477 kts 28°
2026-05-04 03:38 21.12166 -64.30979 37113 ft 477 kts 28°
2026-05-04 03:39 21.17897 -64.27387 37119 ft 477 kts 28°
2026-05-04 03:39 21.23634 -64.23789 37122 ft 477 kts 28°
2026-05-04 03:40 21.29365 -64.20189 37130 ft 477 kts 28°
2026-05-04 03:40 21.35096 -64.16588 37120 ft 478 kts 28°
2026-05-04 03:41 21.40832 -64.12980 37121 ft 478 kts 28°
2026-05-04 03:41 21.46569 -64.09368 37119 ft 478 kts 28°
2026-05-04 03:42 21.52309 -64.05750 37131 ft 478 kts 28°
2026-05-04 03:42 21.58041 -64.02135 37127 ft 478 kts 28°
2026-05-04 03:43 21.63783 -63.98509 37129 ft 479 kts 28°
2026-05-04 03:43 21.69527 -63.94879 37129 ft 479 kts 28°
2026-05-04 03:44 21.75270 -63.91247 37127 ft 479 kts 28°
2026-05-04 03:44 21.80975 -63.87634 37130 ft 479 kts 28°
2026-05-04 03:45 21.86702 -63.83965 37134 ft 480 kts 30°
2026-05-04 03:45 21.92302 -63.80036 37132 ft 481 kts 31°
2026-05-04 03:46 21.97856 -63.76014 37132 ft 481 kts 31°
2026-05-04 03:46 22.03418 -63.72001 37135 ft 481 kts 31°
2026-05-04 03:47 22.08983 -63.68011 37131 ft 480 kts 31°
2026-05-04 03:47 22.14555 -63.64025 37134 ft 481 kts 31°
2026-05-04 03:48 22.20136 -63.60030 37132 ft 482 kts 31°
2026-05-04 03:48 22.25717 -63.56029 37133 ft 482 kts 31°
2026-05-04 03:49 22.31300 -63.52022 37138 ft 482 kts 31°
2026-05-04 03:49 22.36883 -63.48011 37138 ft 482 kts 31°
2026-05-04 03:50 22.42460 -63.44000 37138 ft 482 kts 31°
2026-05-04 03:50 22.48039 -63.39984 37137 ft 481 kts 31°
2026-05-04 03:51 22.53610 -63.35969 37141 ft 481 kts 31°
2026-05-04 03:51 22.59173 -63.31957 37141 ft 481 kts 31°
2026-05-04 03:52 22.64739 -63.27939 37146 ft 481 kts 31°
2026-05-04 03:52 22.70311 -63.23912 37143 ft 482 kts 31°
2026-05-04 03:53 22.75851 -63.19904 37140 ft 482 kts 31°
2026-05-04 03:53 22.81431 -63.15864 37142 ft 482 kts 31°
2026-05-04 03:54 22.87005 -63.11824 37146 ft 482 kts 31°
2026-05-04 03:54 22.92571 -63.07785 37143 ft 481 kts 31°
2026-05-04 03:55 22.98135 -63.03743 37143 ft 482 kts 31°
2026-05-04 03:55 23.03703 -62.99695 37146 ft 482 kts 31°
2026-05-04 03:56 23.09266 -62.95647 37147 ft 482 kts 31°
2026-05-04 03:56 23.14841 -62.91585 37152 ft 482 kts 31°
2026-05-04 03:57 23.20410 -62.87524 37152 ft 483 kts 31°
2026-05-04 03:57 23.25990 -62.83451 37148 ft 483 kts 31°
2026-05-04 03:58 23.34343 -62.77345 37151 ft 481 kts 31°
2026-05-04 03:58 23.39857 -62.73309 37151 ft 481 kts 31°
2026-05-04 03:59 23.45416 -62.69237 37154 ft 482 kts 31°
2026-05-04 03:59 23.50979 -62.65157 37148 ft 482 kts 31°
2026-05-04 04:00 23.56541 -62.61073 37150 ft 482 kts 31°
2026-05-04 04:00 23.62102 -62.56986 37156 ft 482 kts 31°
2026-05-04 04:01 23.67665 -62.52894 37155 ft 483 kts 31°
2026-05-04 04:01 23.73233 -62.48794 37157 ft 482 kts 31°
2026-05-04 04:02 23.78785 -62.44700 37152 ft 482 kts 31°
2026-05-04 04:02 23.84337 -62.40603 37151 ft 482 kts 32°
2026-05-04 04:03 23.89891 -62.36500 37151 ft 482 kts 31°
2026-05-04 04:03 23.95442 -62.32395 37159 ft 482 kts 31°
2026-05-04 04:04 24.01003 -62.28278 37155 ft 483 kts 31°
2026-05-04 04:04 24.06524 -62.24186 37160 ft 483 kts 31°
2026-05-04 04:05 24.12076 -62.20067 37150 ft 481 kts 32°
2026-05-04 04:05 24.17607 -62.15959 37151 ft 480 kts 31°
2026-05-04 04:06 24.23138 -62.11847 37167 ft 481 kts 31°
2026-05-04 04:06 24.28673 -62.07727 37161 ft 481 kts 31°
2026-05-04 04:07 24.34210 -62.03602 37172 ft 481 kts 31°
2026-05-04 04:07 24.39741 -61.99477 37157 ft 481 kts 31°
2026-05-04 04:08 24.45283 -61.95339 37160 ft 482 kts 31°
2026-05-04 04:08 24.50823 -61.91198 37158 ft 482 kts 31°
2026-05-04 04:09 24.56316 -61.87087 37162 ft 480 kts 31°
2026-05-04 04:09 24.61831 -61.82955 37162 ft 480 kts 31°
2026-05-04 04:10 24.67355 -61.78813 37165 ft 481 kts 31°
2026-05-04 04:10 24.72884 -61.74663 37164 ft 481 kts 31°
2026-05-04 04:11 24.78416 -61.70504 37163 ft 481 kts 31°
2026-05-04 04:11 24.83947 -61.66343 37166 ft 481 kts 31°
2026-05-04 04:12 24.89475 -61.62179 37164 ft 481 kts 31°
2026-05-04 04:12 24.95003 -61.58010 37164 ft 481 kts 31°
2026-05-04 04:13 25.00533 -61.53836 37164 ft 481 kts 31°
2026-05-04 04:13 25.06061 -61.49658 37165 ft 482 kts 31°
2026-05-04 04:14 25.11585 -61.45479 37166 ft 482 kts 31°
2026-05-04 04:14 25.17083 -61.41315 37165 ft 483 kts 31°
2026-05-04 04:15 25.22628 -61.37110 37167 ft 483 kts 31°
2026-05-04 04:15 25.28167 -61.32905 37163 ft 483 kts 32°
2026-05-04 04:16 25.33695 -61.28703 37168 ft 481 kts 32°
2026-05-04 04:16 25.39211 -61.24506 37168 ft 482 kts 31°
2026-05-04 04:17 25.44737 -61.20298 37167 ft 483 kts 31°
2026-05-04 04:17 25.50231 -61.16109 37168 ft 483 kts 31°
2026-05-04 04:18 25.55798 -61.11858 37167 ft 483 kts 31°
2026-05-04 04:18 25.61288 -61.07663 37171 ft 483 kts 31°
2026-05-04 04:19 25.66829 -61.03423 37168 ft 484 kts 31°
2026-05-04 04:19 25.72364 -60.99182 37164 ft 483 kts 31°
2026-05-04 04:20 25.77885 -60.94947 37168 ft 482 kts 31°
2026-05-04 04:20 25.83408 -60.90707 37169 ft 483 kts 31°
2026-05-04 04:21 25.88941 -60.86455 37167 ft 484 kts 31°
2026-05-04 04:21 25.94475 -60.82196 37167 ft 484 kts 31°
2026-05-04 04:22 26.00013 -60.77928 37167 ft 484 kts 31°
2026-05-04 04:22 26.05546 -60.73660 37172 ft 484 kts 31°
2026-05-04 04:23 26.11076 -60.69389 37165 ft 483 kts 31°
2026-05-04 04:23 26.16559 -60.65149 37170 ft 483 kts 31°
2026-05-04 04:24 26.22084 -60.60873 37169 ft 483 kts 31°
2026-05-04 04:24 26.27604 -60.56594 37171 ft 483 kts 31°
2026-05-04 04:25 26.33138 -60.52301 37166 ft 485 kts 31°
2026-05-04 04:25 26.38681 -60.47995 37167 ft 486 kts 31°
2026-05-04 04:26 26.44221 -60.43686 37168 ft 485 kts 31°
2026-05-04 04:26 26.49738 -60.39388 37174 ft 483 kts 31°
2026-05-04 04:27 26.55256 -60.35087 37166 ft 485 kts 31°
2026-05-04 04:27 26.60785 -60.30771 37165 ft 485 kts 31°
2026-05-04 04:28 26.66285 -60.26473 37165 ft 485 kts 31°
2026-05-04 04:28 26.71821 -60.22141 37164 ft 485 kts 31°
2026-05-04 04:29 26.77357 -60.17805 37165 ft 487 kts 31°
2026-05-04 04:29 26.82897 -60.13460 37164 ft 486 kts 31°
2026-05-04 04:30 26.87490 -60.09852 37167 ft 485 kts 31°
2026-05-04 04:30 26.93011 -60.05511 37168 ft 485 kts 31°
2026-05-04 04:31 26.98535 -60.01164 37168 ft 486 kts 31°
2026-05-04 04:31 27.03994 -59.96650 37168 ft 489 kts 33°
2026-05-04 04:32 27.09356 -59.91948 37165 ft 489 kts 34°
2026-05-04 04:32 27.14706 -59.87233 37167 ft 488 kts 34°
2026-05-04 04:33 27.20051 -59.82548 37167 ft 486 kts 34°
2026-05-04 04:33 27.25385 -59.77887 37167 ft 486 kts 34°
2026-05-04 04:34 27.30719 -59.73225 37165 ft 486 kts 34°
2026-05-04 04:34 27.36055 -59.68556 37165 ft 486 kts 34°
2026-05-04 04:35 27.41393 -59.63877 37167 ft 488 kts 33°
2026-05-04 04:35 27.46728 -59.59197 37159 ft 490 kts 33°
2026-05-04 04:36 27.52092 -59.54481 37168 ft 488 kts 33°
2026-05-04 04:36 27.57437 -59.49775 37164 ft 487 kts 33°
2026-05-04 04:37 27.68146 -59.40334 37166 ft 490 kts 33°
2026-05-04 04:38 27.73514 -59.35593 37163 ft 490 kts 33°
2026-05-04 04:38 27.78880 -59.30847 37158 ft 490 kts 33°
2026-05-04 04:39 27.84235 -59.26103 37163 ft 489 kts 33°
2026-05-04 04:39 27.89592 -59.21353 37162 ft 490 kts 33°
2026-05-04 04:40 27.94950 -59.16596 37163 ft 490 kts 33°
2026-05-04 04:40 28.00314 -59.11827 37163 ft 490 kts 33°
2026-05-04 04:41 28.05640 -59.07085 37164 ft 491 kts 33°
2026-05-04 04:41 28.11016 -59.02293 37156 ft 492 kts 33°
2026-05-04 04:42 28.16375 -58.97509 37162 ft 489 kts 33°
2026-05-04 04:42 28.21719 -58.92732 37163 ft 489 kts 33°
2026-05-04 04:43 28.27055 -58.87958 37145 ft 490 kts 33°
2026-05-04 04:43 28.32411 -58.83160 37160 ft 491 kts 33°
2026-05-04 04:44 28.37766 -58.78355 37144 ft 491 kts 33°
2026-05-04 04:44 28.43122 -58.73542 37177 ft 491 kts 33°
2026-05-04 04:45 28.48477 -58.68724 37162 ft 492 kts 33°
2026-05-04 04:47 28.67272 -58.51764 37161 ft 494 kts 33°
2026-05-04 04:47 28.72655 -58.46894 37150 ft 494 kts 33°
2026-05-04 04:48 28.78029 -58.42022 37156 ft 493 kts 33°
2026-05-04 04:49 28.91410 -58.29864 37157 ft 494 kts 33°
2026-05-04 04:49 28.96783 -58.24971 37154 ft 494 kts 33°
2026-05-04 04:50 29.02161 -58.20068 37151 ft 494 kts 33°
2026-05-04 04:50 29.07528 -58.15166 37154 ft 494 kts 33°
2026-05-04 04:51 29.12901 -58.10253 37152 ft 495 kts 33°
2026-05-04 04:51 29.18278 -58.05330 37151 ft 495 kts 33°
2026-05-04 04:52 29.23653 -58.00401 37151 ft 495 kts 33°
2026-05-04 04:52 29.29023 -57.95470 37149 ft 495 kts 33°
2026-05-04 04:53 29.34396 -57.90530 37151 ft 495 kts 34°
2026-05-04 04:53 29.39712 -57.85634 37152 ft 493 kts 34°
2026-05-04 04:54 29.45057 -57.80705 37156 ft 493 kts 33°
2026-05-04 04:54 29.50412 -57.75764 37151 ft 495 kts 33°
2026-05-04 04:55 29.55778 -57.70803 37148 ft 495 kts 33°
2026-05-04 04:55 29.61139 -57.65838 37148 ft 495 kts 33°
2026-05-04 04:56 29.66494 -57.60873 37152 ft 494 kts 33°
2026-05-04 04:56 29.71836 -57.55911 37150 ft 493 kts 33°
2026-05-04 04:57 29.77178 -57.50944 37137 ft 494 kts 33°
2026-05-04 04:57 29.82518 -57.45972 37160 ft 494 kts 33°
2026-05-04 04:58 29.87868 -57.40985 37144 ft 496 kts 33°
2026-05-04 04:58 29.93229 -57.35978 37141 ft 496 kts 34°
2026-05-04 04:59 29.98569 -57.30982 37143 ft 493 kts 34°
2026-05-04 04:59 30.03892 -57.25996 37135 ft 493 kts 33°
2026-05-04 05:00 30.09235 -57.20989 37146 ft 496 kts 33°
2026-05-04 05:01 30.17232 -57.13476 37135 ft 496 kts 33°
2026-05-04 05:01 30.22585 -57.08437 37141 ft 495 kts 33°
2026-05-04 05:02 30.27925 -57.03404 37143 ft 495 kts 34°
2026-05-04 05:02 30.33266 -56.98361 37143 ft 495 kts 34°
2026-05-04 05:03 30.38604 -56.93315 37140 ft 495 kts 34°
2026-05-04 05:04 30.49271 -56.83213 37144 ft 498 kts 34°
2026-05-04 05:04 30.54620 -56.78133 37143 ft 496 kts 34°
2026-05-04 05:06 30.76016 -56.57743 37139 ft 499 kts 34°
2026-05-04 05:07 30.81373 -56.52619 37137 ft 498 kts 34°
2026-05-04 05:07 30.86728 -56.47489 37140 ft 499 kts 34°
2026-05-04 05:09 31.10858 -56.24278 37131 ft 499 kts 34°
2026-05-04 05:10 31.16205 -56.19112 37134 ft 499 kts 34°
2026-05-04 05:10 31.21552 -56.13940 37136 ft 499 kts 34°
2026-05-04 05:11 31.26896 -56.08764 37129 ft 499 kts 34°
2026-05-04 05:11 31.32203 -56.03614 37137 ft 499 kts 34°
2026-05-04 05:12 31.37554 -55.98415 37130 ft 501 kts 34°
2026-05-04 05:12 31.42916 -55.93197 37127 ft 501 kts 34°
2026-05-04 05:13 31.48277 -55.87970 37130 ft 501 kts 34°
2026-05-04 05:13 31.53644 -55.82730 37127 ft 503 kts 34°
2026-05-04 05:14 31.59019 -55.77476 37121 ft 503 kts 34°
2026-05-04 05:14 31.64380 -55.72224 37127 ft 501 kts 34°
2026-05-04 05:15 31.69727 -55.66978 37131 ft 501 kts 34°
2026-05-04 05:15 31.75049 -55.61752 37127 ft 502 kts 34°
2026-05-04 05:16 31.80413 -55.56475 37127 ft 503 kts 34°
2026-05-04 05:16 31.85771 -55.51195 37127 ft 503 kts 33°
2026-05-04 05:17 31.91129 -55.45907 37124 ft 502 kts 34°
2026-05-04 05:17 31.96476 -55.40620 37126 ft 502 kts 34°
2026-05-04 05:18 32.01829 -55.35321 37136 ft 502 kts 33°
2026-05-04 05:18 32.07180 -55.30014 37122 ft 504 kts 33°
2026-05-04 05:19 32.12542 -55.24688 37120 ft 504 kts 34°
2026-05-04 05:19 32.17886 -55.19370 37121 ft 502 kts 34°
2026-05-04 05:20 32.23215 -55.14060 37119 ft 502 kts 33°
2026-05-04 05:20 32.28560 -55.08729 37119 ft 503 kts 33°
2026-05-04 05:21 32.33900 -55.03390 37121 ft 503 kts 33°
2026-05-04 05:21 32.39201 -54.98083 37119 ft 502 kts 33°
2026-05-04 05:22 32.44523 -54.92744 37115 ft 500 kts 33°
2026-05-04 05:22 32.49828 -54.87416 37115 ft 500 kts 33°
2026-05-04 05:23 32.55137 -54.82077 37109 ft 501 kts 33°
2026-05-04 05:23 32.59563 -54.77620 37126 ft 502 kts 33°
2026-05-04 05:24 32.64882 -54.72253 37115 ft 501 kts 33°
2026-05-04 05:24 32.70178 -54.66897 37112 ft 499 kts 33°
2026-05-04 05:25 32.75462 -54.61549 37122 ft 499 kts 33°
2026-05-04 05:25 32.80752 -54.56188 37116 ft 500 kts 33°
2026-05-04 05:26 32.86042 -54.50817 37125 ft 500 kts 33°
2026-05-04 05:26 32.91323 -54.45444 37112 ft 498 kts 33°
2026-05-04 05:28 33.12330 -54.23991 37103 ft 499 kts 33°
2026-05-04 05:29 33.17581 -54.18604 37112 ft 496 kts 33°
2026-05-04 05:29 33.22810 -54.13231 37113 ft 496 kts 33°
2026-05-04 05:31 33.43723 -53.91663 37116 ft 495 kts 34°
2026-05-04 05:32 33.48927 -53.86273 37113 ft 495 kts 34°
2026-05-04 05:33 33.56744 -53.78163 37107 ft 496 kts 33°
2026-05-04 05:33 33.61958 -53.72740 37111 ft 496 kts 34°
2026-05-04 05:34 33.67121 -53.67360 37132 ft 494 kts 33°
2026-05-04 05:34 33.72313 -53.61945 37111 ft 495 kts 33°
2026-05-04 05:35 33.77515 -53.56509 37108 ft 496 kts 33°
2026-05-04 05:35 33.82721 -53.51059 37126 ft 496 kts 33°
2026-05-04 05:36 33.87926 -53.45600 37107 ft 497 kts 33°
2026-05-04 05:36 33.93134 -53.40130 37099 ft 497 kts 33°
2026-05-04 05:37 33.98338 -53.34653 37117 ft 497 kts 33°
2026-05-04 05:37 34.03549 -53.29162 37108 ft 498 kts 33°
2026-05-04 05:38 34.11336 -53.20938 37103 ft 497 kts 34°
2026-05-04 05:38 34.16534 -53.15434 37102 ft 497 kts 34°
2026-05-04 05:39 34.24351 -53.07144 37099 ft 499 kts 34°
2026-05-04 05:40 34.32169 -52.98830 37096 ft 500 kts 34°
2026-05-04 05:40 34.37388 -52.93268 37102 ft 500 kts 34°
2026-05-04 05:41 34.42600 -52.87702 37096 ft 499 kts 34°
2026-05-04 05:41 34.47809 -52.82131 37097 ft 499 kts 34°
2026-05-04 05:42 34.53014 -52.76555 37096 ft 499 kts 34°
2026-05-04 05:42 34.58211 -52.70977 37119 ft 497 kts 34°
2026-05-04 05:43 34.63399 -52.65400 37102 ft 499 kts 34°
2026-05-04 05:45 34.84188 -52.42956 37099 ft 501 kts 34°
2026-05-04 05:47 35.05046 -52.20276 37096 ft 503 kts 34°
2026-05-04 05:47 35.10267 -52.14574 37095 ft 504 kts 34°
2026-05-04 05:48 35.15460 -52.08892 37088 ft 504 kts 34°
2026-05-04 05:48 35.20688 -52.03162 37083 ft 505 kts 34°
2026-05-04 05:49 35.25922 -51.97414 37092 ft 505 kts 34°
2026-05-04 05:49 35.31144 -51.91667 37090 ft 505 kts 34°
2026-05-04 05:51 35.52086 -51.68524 37089 ft 507 kts 34°
2026-05-04 05:52 35.57324 -51.62710 37083 ft 508 kts 34°
2026-05-04 05:52 35.62567 -51.56878 37077 ft 509 kts 34°
2026-05-04 05:54 35.83502 -51.33487 37081 ft 511 kts 34°
2026-05-04 05:55 35.88741 -51.27601 37086 ft 508 kts 35°
2026-05-04 05:55 35.93962 -51.21726 37086 ft 507 kts 35°
2026-05-04 05:56 35.99175 -51.15854 37083 ft 508 kts 35°
2026-05-04 05:56 36.04397 -51.09961 37085 ft 509 kts 34°
2026-05-04 05:57 36.09634 -51.04040 37083 ft 510 kts 35°
2026-05-04 05:57 36.14835 -50.98145 37094 ft 511 kts 35°
2026-05-04 05:58 36.20075 -50.92195 37082 ft 512 kts 35°
2026-05-04 05:58 36.25322 -50.86228 37080 ft 512 kts 35°
2026-05-04 05:59 36.30557 -50.80260 37081 ft 511 kts 35°
2026-05-04 05:59 36.35784 -50.74290 37082 ft 511 kts 35°
2026-05-04 06:00 36.41014 -50.68308 37081 ft 512 kts 35°
2026-05-04 06:00 36.46251 -50.62307 37084 ft 512 kts 35°
2026-05-04 06:01 36.51479 -50.56301 37086 ft 511 kts 35°
2026-05-04 06:03 36.72425 -50.32129 37081 ft 515 kts 36°
2026-05-04 06:05 36.95968 -50.04732 37084 ft 515 kts 36°
2026-05-04 06:06 37.01226 -49.98650 37079 ft 514 kts 34°
2026-05-04 06:06 37.06637 -49.92859 37096 ft 511 kts 32°
2026-05-04 06:07 37.12089 -49.87164 37081 ft 510 kts 32°
2026-05-04 06:07 37.17527 -49.81447 37081 ft 510 kts 32°
2026-05-04 06:08 37.22952 -49.75692 37076 ft 511 kts 33°
2026-05-04 06:08 37.28363 -49.69925 37077 ft 509 kts 33°
2026-05-04 06:09 37.33750 -49.64169 37080 ft 508 kts 33°
2026-05-04 06:11 37.55246 -49.41112 37077 ft 509 kts 33°
2026-05-04 06:13 37.76762 -49.17846 37078 ft 508 kts 34°
2026-05-04 06:14 37.95449 -48.97490 37078 ft 505 kts 34°
2026-05-04 06:15 38.00769 -48.91669 37080 ft 505 kts 34°
2026-05-04 06:15 38.06039 -48.85891 37083 ft 504 kts 34°
2026-05-04 06:16 38.11349 -48.80060 37080 ft 506 kts 34°
2026-05-04 06:16 38.16669 -48.74205 37078 ft 506 kts 34°
2026-05-04 06:17 38.21982 -48.68345 37081 ft 506 kts 34°
2026-05-04 06:17 38.27287 -48.62481 37080 ft 504 kts 35°
2026-05-04 06:18 38.31679 -48.57616 37081 ft 503 kts 35°
2026-05-04 06:20 38.52745 -48.34181 37081 ft 502 kts 35°
2026-05-04 06:21 38.65880 -48.19471 37078 ft 501 kts 35°
2026-05-04 06:22 38.71124 -48.13579 37076 ft 502 kts 35°
2026-05-04 06:25 39.07733 -47.72097 37078 ft 501 kts 36°
2026-05-04 06:26 39.12949 -47.66137 37083 ft 501 kts 36°
2026-05-04 06:26 39.18159 -47.60174 37091 ft 501 kts 36°
2026-05-04 06:27 39.31180 -47.45215 37090 ft 503 kts 36°
2026-05-04 06:28 39.36397 -47.39198 37077 ft 502 kts 36°
2026-05-04 06:28 39.41570 -47.33220 37080 ft 502 kts 36°
2026-05-04 06:29 39.46780 -47.27187 37088 ft 502 kts 36°
2026-05-04 06:29 39.51977 -47.21157 37080 ft 502 kts 36°
2026-05-04 06:30 39.57173 -47.15114 37083 ft 502 kts 36°
2026-05-04 06:30 39.62361 -47.09070 37088 ft 501 kts 36°
2026-05-04 06:31 39.67548 -47.03013 37089 ft 501 kts 36°
2026-05-04 06:31 39.72727 -46.96953 37095 ft 501 kts 36°
2026-05-04 06:33 39.93377 -46.72665 37094 ft 503 kts 37°
2026-05-04 06:34 39.98563 -46.66530 37091 ft 503 kts 37°
2026-05-04 06:34 40.03745 -46.60387 37091 ft 503 kts 37°
2026-05-04 06:36 40.24383 -46.35796 37097 ft 501 kts 37°
2026-05-04 06:37 40.29525 -46.29636 37099 ft 501 kts 37°
2026-05-04 06:37 40.34659 -46.23473 37103 ft 501 kts 37°
2026-05-04 06:38 40.39790 -46.17300 37105 ft 501 kts 37°
2026-05-04 06:40 40.60327 -45.92456 37101 ft 502 kts 37°
2026-05-04 06:40 40.65418 -45.86262 37101 ft 501 kts 37°
2026-05-04 06:41 40.70541 -45.80019 37116 ft 502 kts 37°
2026-05-04 06:41 40.75656 -45.73770 37108 ft 501 kts 37°
2026-05-04 06:42 40.80766 -45.67514 37108 ft 501 kts 37°
2026-05-04 06:44 41.01108 -45.42471 37122 ft 499 kts 37°
2026-05-04 06:44 41.06166 -45.36208 37106 ft 496 kts 37°
2026-05-04 06:45 41.11205 -45.29957 37109 ft 496 kts 37°
2026-05-04 06:45 41.16240 -45.23698 37121 ft 496 kts 37°
2026-05-04 06:46 41.21230 -45.17479 37122 ft 495 kts 37°
2026-05-04 06:46 41.26242 -45.11220 37129 ft 495 kts 37°
2026-05-04 06:48 41.46273 -44.86066 37128 ft 494 kts 37°
2026-05-04 06:50 41.66174 -44.60850 37141 ft 492 kts 37°
2026-05-04 06:51 41.71142 -44.54522 37134 ft 494 kts 37°
2026-05-04 06:51 41.76120 -44.48166 37135 ft 493 kts 37°
2026-05-04 06:52 41.81074 -44.41823 37144 ft 493 kts 37°
2026-05-04 06:52 41.86026 -44.35471 37142 ft 493 kts 37°
2026-05-04 06:53 41.90941 -44.29153 37145 ft 492 kts 37°
2026-05-04 06:53 41.95879 -44.22789 37148 ft 492 kts 37°
2026-05-04 06:54 42.00816 -44.16414 37148 ft 492 kts 37°
2026-05-04 06:54 42.05740 -44.10038 37154 ft 490 kts 37°
2026-05-04 06:55 42.10635 -44.03685 37145 ft 488 kts 37°
2026-05-04 06:55 42.15523 -43.97331 37156 ft 489 kts 37°
2026-05-04 06:57 42.35004 -43.71860 37161 ft 488 kts 37°
2026-05-04 06:58 42.39872 -43.65459 37167 ft 488 kts 37°
2026-05-04 06:58 42.44737 -43.59046 37165 ft 488 kts 37°
2026-05-04 06:59 42.49597 -43.52624 37171 ft 487 kts 37°
2026-05-04 06:59 42.54436 -43.46213 37171 ft 486 kts 37°
2026-05-04 07:01 42.73646 -43.20627 37181 ft 480 kts 37°
2026-05-04 07:02 42.78412 -43.14248 37181 ft 480 kts 37°
2026-05-04 07:02 42.83172 -43.07859 37184 ft 481 kts 37°
2026-05-04 07:03 42.87897 -43.01502 37184 ft 481 kts 37°
2026-05-04 07:03 42.92650 -42.95091 37195 ft 480 kts 37°
2026-05-04 07:04 42.97368 -42.88709 37189 ft 477 kts 37°
2026-05-04 07:04 43.02096 -42.82310 37190 ft 479 kts 37°
2026-05-04 07:05 43.06831 -42.75882 37203 ft 480 kts 37°
2026-05-04 07:05 43.11550 -42.69455 37200 ft 477 kts 37°
2026-05-04 07:06 43.18594 -42.59840 37201 ft 477 kts 37°
2026-05-04 07:07 43.23285 -42.53420 37209 ft 476 kts 37°
2026-05-04 07:09 43.41040 -42.28979 37210 ft 469 kts 37°
2026-05-04 07:09 43.45626 -42.22629 37217 ft 467 kts 37°
2026-05-04 07:10 43.50950 -42.15246 37210 ft 468 kts 37°
2026-05-04 07:12 43.68488 -41.90780 37228 ft 469 kts 37°
2026-05-04 07:12 43.73049 -41.84372 37221 ft 466 kts 37°
2026-05-04 07:13 43.77556 -41.78031 37222 ft 466 kts 37°
2026-05-04 07:13 43.82096 -41.71633 37222 ft 466 kts 37°
2026-05-04 07:14 43.93420 -41.55606 37230 ft 465 kts 37°
2026-05-04 07:15 43.97942 -41.49180 37259 ft 465 kts 36°
2026-05-04 07:15 44.02451 -41.42756 37237 ft 464 kts 37°
2026-05-04 07:16 44.06950 -41.36331 37235 ft 463 kts 37°
2026-05-04 07:16 44.11443 -41.29903 37235 ft 463 kts 37°
2026-05-04 07:17 44.15929 -41.23469 37243 ft 463 kts 37°
2026-05-04 07:17 44.20371 -41.17079 37243 ft 461 kts 37°
2026-05-04 07:18 44.24829 -41.10656 37244 ft 461 kts 37°
2026-05-04 07:18 44.29295 -41.04209 37246 ft 463 kts 37°
2026-05-04 07:19 44.33778 -40.97724 37244 ft 465 kts 37°
2026-05-04 07:19 44.38266 -40.91210 37247 ft 465 kts 37°
2026-05-04 07:20 44.42749 -40.84685 37244 ft 465 kts 37°
2026-05-04 07:20 44.47228 -40.78152 37252 ft 464 kts 37°
2026-05-04 07:22 44.65048 -40.52013 37256 ft 462 kts 37°
2026-05-04 07:23 44.69482 -40.45471 37264 ft 462 kts 37°
2026-05-04 07:23 44.73890 -40.38952 37265 ft 462 kts 37°
2026-05-04 07:24 44.78316 -40.32391 37269 ft 462 kts 37°
2026-05-04 07:24 44.82732 -40.25828 37267 ft 461 kts 38°
2026-05-04 07:26 45.00228 -39.99271 37279 ft 471 kts 45°
2026-05-04 07:27 45.04021 -39.91670 37279 ft 475 kts 47°
2026-05-04 07:27 45.07681 -39.83959 37288 ft 475 kts 47°
2026-05-04 07:28 45.11333 -39.76180 37287 ft 474 kts 47°
2026-05-04 07:28 45.14990 -39.68403 37289 ft 474 kts 47°
2026-05-04 07:29 45.18650 -39.60624 37285 ft 474 kts 47°
2026-05-04 07:29 45.22303 -39.52846 37288 ft 473 kts 47°
2026-05-04 07:30 45.25946 -39.45068 37288 ft 473 kts 47°
2026-05-04 07:30 45.29586 -39.37276 37291 ft 473 kts 47°
2026-05-04 07:31 45.33220 -39.29473 37305 ft 473 kts 47°
2026-05-04 07:33 45.47651 -38.98271 37306 ft 472 kts 47°
2026-05-04 07:33 45.51238 -38.90458 37311 ft 471 kts 47°
2026-05-04 07:34 45.54819 -38.82642 37314 ft 471 kts 47°
2026-05-04 07:34 45.58399 -38.74806 37350 ft 471 kts 47°
2026-05-04 07:35 45.61962 -38.66981 37316 ft 468 kts 47°
2026-05-04 07:35 45.65501 -38.59190 37320 ft 467 kts 47°
2026-05-04 07:36 45.69035 -38.51393 37325 ft 467 kts 47°
2026-05-04 07:38 45.83103 -38.20130 37330 ft 468 kts 48°
2026-05-04 07:38 45.86610 -38.12279 37339 ft 466 kts 48°
2026-05-04 07:39 45.90092 -38.04456 37318 ft 464 kts 48°
2026-05-04 07:39 45.93563 -37.96645 37338 ft 464 kts 49°
2026-05-04 07:40 45.97033 -37.88818 37344 ft 464 kts 49°
2026-05-04 07:40 46.00498 -37.80977 37349 ft 464 kts 49°
2026-05-04 07:41 46.03955 -37.73129 37342 ft 464 kts 49°
2026-05-04 07:41 46.07404 -37.65281 37345 ft 464 kts 49°
2026-05-04 07:42 46.10855 -37.57404 37380 ft 464 kts 49°
2026-05-04 07:42 46.14305 -37.49513 37347 ft 466 kts 50°
2026-05-04 07:43 46.17735 -37.41640 37352 ft 467 kts 50°
2026-05-04 07:43 46.21187 -37.33692 37353 ft 467 kts 50°
2026-05-04 07:44 46.24634 -37.25733 37377 ft 467 kts 51°
2026-05-04 07:44 46.28086 -37.17747 37362 ft 470 kts 51°
2026-05-04 07:45 46.31546 -37.09714 37361 ft 471 kts 51°
2026-05-04 07:45 46.35002 -37.01664 37361 ft 471 kts 51°
2026-05-04 07:46 46.38452 -36.93603 37363 ft 471 kts 52°
2026-05-04 07:46 46.41909 -36.85510 37364 ft 473 kts 52°
2026-05-04 07:47 46.45370 -36.77381 37367 ft 473 kts 52°